Track STARLINK-1114 now! 10-day predictions STARLINK-1114 is classified as:
1 44927U 20001P 24325.39459986 .00003007 00000-0 22064-3 0 9995 2 44927 53.0550 315.8100 0001430 88.1705 271.9448 15.06403304268367